Zurück zum Katalog

STARLINK-33826

AktivKommunikationVLEO
NORAD 63641·PAYLOAD·🇺🇸 United States

Gestartet Apr 25, 2025 von Cape Canaveral Space Force Station

Loading…

Nächste Überflüge (nächste 24 Stunden)

TLE

AktuellSource: CelesTrak SupGP

Epoche: Sep 14, 2026, 21:36 UTC

1 63641C 25083H   26257.90048611  .00029061  00000+0  10524-2 0  2577
2 63641  43.0014  16.5080 0001343 275.0436 164.8737 15.27569750    16

Verfolge STARLINK-33826 in Echtzeit mit AllMySat

Download on the App Store